sat.trackr.live / text

‹ back to catalog

KUIPER-00157

NORAD 65970 · 2025-228Z

PAYLOAD ACTIVE UNKNOWN

§ Identity

Operator
Country
US
Launch date
2025-10-14
Launch site
AFETR
Launch vehicle
Mass (kg)
RCS (m²)

External: N2YO · Heavens-Above · Gunter

§ Orbital elements

Epoch: 2026-09-20T21:46:10.982784Z

Period
97.52 min
Inclination
51.9020°
Eccentricity
0.0001700
Mean motion
14.76656231 rev/d
Perigee alt
638.7 km
Apogee alt
641.1 km
Semi-major
7,018.0 km
B*
2.9625e-4
RAAN
194.5808°
Arg perigee
132.4767°
Mean anomaly
227.6338°
Rev number
5,245

§ Raw data

KUIPER-001571 65970U 25228Z   26263.90707156  .00001876  00000+0  29625-3 0  99982 65970  51.9020 194.5808 0001700 132.4767 227.6338 14.76656231 52457

JSON: /api/v1/satellites/65970 · /tle

For live sub-satellite position, see the globe view (requires WebGL).

§ Visibility from observer

Set your observer location to see the next 7 days of passes ≥ 10°. The values pass through the URL so the page stays shareable.

No JS? Fill the form by hand. The geolocation button needs JavaScript.